Powrót do katalogu

IRIDIUM 33 DEB

AktywnyPO
NORAD 33860·DEBRIS·🇺🇸 United States

Wystrzelony Sep 14, 1997 z Baikonur Cosmodrome

Loading…

Następne Przeloty (najbliższe 24 godziny)

TLE

ŚwieżeSource: Space-Track

Epoka: Sep 14, 2026, 07:18 UTC

1 33860U 97051AD  26257.30448124  .00004014  00000-0  65056-3 0  9994
2 33860  86.3760 264.8256 0011334 103.9052 315.4402 14.70976244927693

Śledź IRIDIUM 33 DEB w czasie rzeczywistym z AllMySat

Download on the App Store